Time,TemperatureF,DewpointF,PressureIn,WindDirection,WindDirectionDegrees,WindSpeedMPH,WindSpeedGustMPH,Humidity,HourlyPrecipIn,Conditions,Clouds,dailyrainin,SoftwareType,DateUTC
2013-05-02 00:00:00,67.1,54.5,30.18,SE,135,0.0,0.0,64,0.00,,,0.00,WUHU21623XXSP,2013-05-02 04:00:00,
2013-05-02 00:01:00,67.1,54.5,30.18,SE,135,0.0,0.0,64,0.00,,,0.00,WUHU21623XXSP,2013-05-02 04:01:00,
2013-05-02 00:06:00,66.7,54.1,30.18,SE,135,0.0,0.0,64,0.00,,,0.00,WUHU21623XXSP,2013-05-02 04:06:00,
2013-05-02 00:11:00,66.7,54.6,30.18,SE,135,0.0,0.0,65,0.00,,,0.00,WUHU21623XXSP,2013-05-02 04:11:00,
2013-05-02 00:16:00,66.6,54.4,30.18,SE,135,0.0,0.0,65,0.00,,,0.00,WUHU21623XXSP,2013-05-02 04:16:00,
2013-05-02 00:21:00,66.4,54.2,30.18,ESE,112,0.0,0.0,65,0.00,,,0.00,WUHU21623XXSP,2013-05-02 04:21:00,
2013-05-02 00:26:00,66.4,54.2,30.18,ESE,112,0.0,0.0,65,0.00,,,0.00,WUHU21623XXSP,2013-05-02 04:26:00,
2013-05-02 00:31:00,66.4,54.6,30.18,ESE,112,0.0,0.0,66,0.00,,,0.00,WUHU21623XXSP,2013-05-02 04:31:00,
2013-05-02 00:36:00,66.4,54.6,30.18,ENE,67,0.0,0.0,66,0.00,,,0.00,WUHU21623XXSP,2013-05-02 04:36:00,
2013-05-02 00:41:00,66.4,54.6,30.18,ESE,112,0.0,0.0,66,0.00,,,0.00,WUHU21623XXSP,2013-05-02 04:41:00,
2013-05-02 00:46:00,66.6,54.8,30.18,ESE,112,0.0,0.0,66,0.00,,,0.00,WUHU21623XXSP,2013-05-02 04:46:00,
2013-05-02 00:51:00,66.7,55.0,30.18,SSE,157,0.0,0.0,66,0.00,,,0.00,WUHU21623XXSP,2013-05-02 04:51:00,
2013-05-02 00:56:00,66.7,55.0,30.18,SSE,157,0.0,0.0,66,0.00,,,0.00,WUHU21623XXSP,2013-05-02 04:56:00,
2013-05-02 01:01:00,66.7,55.0,30.18,SSE,157,0.0,0.0,66,0.00,,,0.00,WUHU21623XXSP,2013-05-02 05:01:00,
2013-05-02 01:10:00,66.7,55.0,30.18,SSE,157,0.0,0.0,66,0.00,,,0.00,WUHU21623XXSP,2013-05-02 05:10:00,
2013-05-02 01:15:00,66.7,54.6,30.18,SE,135,0.0,0.0,65,0.00,,,0.00,WUHU21623XXSP,2013-05-02 05:15:00,
2013-05-02 01:20:00,66.7,54.6,30.18,SE,135,0.0,0.0,65,0.00,,,0.00,WUHU21623XXSP,2013-05-02 05:20:00,
2013-05-02 01:25:00,66.7,54.6,30.18,SE,135,0.0,0.0,65,0.00,,,0.00,WUHU21623XXSP,2013-05-02 05:25:00,
2013-05-02 01:30:00,66.6,54.4,30.18,SE,135,0.0,0.0,65,0.00,,,0.00,WUHU21623XXSP,2013-05-02 05:30:00,
2013-05-02 01:35:00,66.4,54.6,30.18,SE,135,0.0,0.0,66,0.00,,,0.00,WUHU21623XXSP,2013-05-02 05:35:00,
2013-05-02 01:40:00,66.0,54.3,30.18,SE,135,0.0,0.0,66,0.00,,,0.00,WUHU21623XXSP,2013-05-02 05:40:00,
2013-05-02 01:45:00,66.0,54.3,30.18,SE,135,0.0,0.0,66,0.00,,,0.00,WUHU21623XXSP,2013-05-02 05:45:00,
2013-05-02 01:50:00,65.8,54.1,30.18,SE,135,0.0,0.0,66,0.00,,,0.00,WUHU21623XXSP,2013-05-02 05:50:00,
2013-05-02 01:55:00,65.8,54.5,30.18,SE,135,0.0,0.0,67,0.00,,,0.00,WUHU21623XXSP,2013-05-02 05:55:00,
2013-05-02 02:00:00,65.8,54.5,30.18,SE,135,0.0,0.0,67,0.00,,,0.00,WUHU21623XXSP,2013-05-02 06:00:00,
2013-05-02 02:05:00,65.8,54.5,30.18,SE,135,0.0,0.0,67,0.00,,,0.00,WUHU21623XXSP,2013-05-02 06:05:00,
2013-05-02 02:10:00,65.8,54.5,30.18,SE,135,0.0,0.0,67,0.00,,,0.00,WUHU21623XXSP,2013-05-02 06:10:00,
2013-05-02 02:15:00,65.5,54.2,30.18,SE,135,0.0,0.0,67,0.00,,,0.00,WUHU21623XXSP,2013-05-02 06:15:00,
2013-05-02 02:20:00,65.3,53.6,30.18,SE,135,0.0,0.0,66,0.00,,,0.00,WUHU21623XXSP,2013-05-02 06:20:00,
2013-05-02 02:25:00,65.1,53.4,30.17,SE,135,0.0,0.0,66,0.00,,,0.00,WUHU21623XXSP,2013-05-02 06:25:00,
2013-05-02 02:30:00,65.1,53.4,30.17,SE,135,0.0,0.0,66,0.00,,,0.00,WUHU21623XXSP,2013-05-02 06:30:00,
2013-05-02 02:35:00,64.9,53.7,30.17,SE,135,0.0,0.0,67,0.00,,,0.00,WUHU21623XXSP,2013-05-02 06:35:00,
2013-05-02 02:40:00,64.8,53.5,30.17,SE,135,0.0,0.0,67,0.00,,,0.00,WUHU21623XXSP,2013-05-02 06:40:00,
2013-05-02 02:45:00,64.6,53.4,30.17,SE,135,0.0,0.0,67,0.00,,,0.00,WUHU21623XXSP,2013-05-02 06:45:00,
2013-05-02 02:50:00,64.6,53.4,30.17,SE,135,0.0,0.0,67,0.00,,,0.00,WUHU21623XXSP,2013-05-02 06:50:00,
2013-05-02 02:55:00,64.2,53.0,30.17,SE,135,0.0,0.0,67,0.00,,,0.00,WUHU21623XXSP,2013-05-02 06:55:00,
2013-05-02 03:00:00,64.2,53.0,30.17,SE,135,0.0,0.0,67,0.00,,,0.00,WUHU21623XXSP,2013-05-02 07:00:00,
2013-05-02 03:05:00,64.2,53.0,30.17,SE,135,0.0,0.0,67,0.00,,,0.00,WUHU21623XXSP,2013-05-02 07:05:00,
2013-05-02 03:10:00,64.2,53.0,30.17,SE,135,0.0,0.0,67,0.00,,,0.00,WUHU21623XXSP,2013-05-02 07:10:00,
2013-05-02 03:15:00,63.7,52.5,30.16,SE,135,0.0,0.0,67,0.00,,,0.00,WUHU21623XXSP,2013-05-02 07:15:00,
2013-05-02 03:20:00,63.5,52.8,30.16,SE,135,0.0,0.0,68,0.00,,,0.00,WUHU21623XXSP,2013-05-02 07:20:00,
2013-05-02 03:25:00,63.3,52.6,30.16,SE,135,0.0,0.0,68,0.00,,,0.00,WUHU21623XXSP,2013-05-02 07:25:00,
2013-05-02 03:30:00,63.1,52.4,30.16,SE,135,0.0,0.0,68,0.00,,,0.00,WUHU21623XXSP,2013-05-02 07:30:00,
2013-05-02 03:35:00,63.0,52.2,30.16,SE,135,0.0,0.0,68,0.00,,,0.00,WUHU21623XXSP,2013-05-02 07:35:00,
2013-05-02 03:40:00,62.8,52.0,30.16,SE,135,0.0,0.0,68,0.00,,,0.00,WUHU21623XXSP,2013-05-02 07:40:00,
2013-05-02 03:45:00,62.4,51.7,30.16,SE,135,0.0,0.0,68,0.00,,,0.00,WUHU21623XXSP,2013-05-02 07:45:00,
2013-05-02 03:50:00,62.4,52.1,30.16,SE,135,0.0,0.0,69,0.00,,,0.00,WUHU21623XXSP,2013-05-02 07:50:00,
2013-05-02 03:55:00,61.9,51.6,30.16,SE,135,0.0,0.0,69,0.00,,,0.00,WUHU21623XXSP,2013-05-02 07:55:00,
2013-05-02 04:00:00,61.9,51.6,30.16,SE,135,0.0,0.0,69,0.00,,,0.00,WUHU21623XXSP,2013-05-02 08:00:00,
2013-05-02 04:05:00,61.9,51.6,30.16,SE,135,0.0,0.0,69,0.00,,,0.00,WUHU21623XXSP,2013-05-02 08:05:00,
2013-05-02 04:10:00,61.7,51.5,30.16,SE,135,0.0,0.0,69,0.00,,,0.00,WUHU21623XXSP,2013-05-02 08:10:00,
2013-05-02 04:15:00,61.3,51.6,30.16,SE,135,0.0,0.0,70,0.00,,,0.00,WUHU21623XXSP,2013-05-02 08:15:00,
2013-05-02 04:20:00,61.2,51.8,30.16,SE,135,0.0,0.0,71,0.00,,,0.00,WUHU21623XXSP,2013-05-02 08:20:00,
2013-05-02 04:26:00,61.0,51.6,30.17,SE,135,0.0,0.0,71,0.00,,,0.00,WUHU21623XXSP,2013-05-02 08:26:00,
2013-05-02 04:31:00,61.0,51.6,30.16,SE,135,0.0,0.0,71,0.00,,,0.00,WUHU21623XXSP,2013-05-02 08:31:00,
2013-05-02 04:36:00,61.0,51.6,30.16,SE,135,0.0,0.0,71,0.00,,,0.00,WUHU21623XXSP,2013-05-02 08:36:00,
2013-05-02 04:41:00,61.0,51.6,30.17,SE,135,0.0,0.0,71,0.00,,,0.00,WUHU21623XXSP,2013-05-02 08:41:00,
2013-05-02 04:46:00,61.0,51.6,30.17,SE,135,0.0,0.0,71,0.00,,,0.00,WUHU21623XXSP,2013-05-02 08:46:00,
2013-05-02 04:51:00,60.8,51.4,30.17,SE,135,0.0,0.0,71,0.00,,,0.00,WUHU21623XXSP,2013-05-02 08:51:00,
2013-05-02 04:56:00,60.6,51.6,30.16,SE,135,0.0,0.0,72,0.00,,,0.00,WUHU21623XXSP,2013-05-02 08:56:00,
2013-05-02 05:01:00,60.6,51.3,30.16,SE,135,0.0,0.0,71,0.00,,,0.00,WUHU21623XXSP,2013-05-02 09:01:00,
2013-05-02 05:06:00,60.6,51.3,30.16,SE,135,0.0,0.0,71,0.00,,,0.00,WUHU21623XXSP,2013-05-02 09:06:00,
2013-05-02 05:11:00,60.6,51.3,30.16,SE,135,0.0,0.0,71,0.00,,,0.00,WUHU21623XXSP,2013-05-02 09:11:00,
2013-05-02 05:16:00,60.4,51.4,30.16,SE,135,0.0,0.0,72,0.00,,,0.00,WUHU21623XXSP,2013-05-02 09:16:00,
2013-05-02 05:21:00,60.1,51.1,30.17,SE,135,0.0,0.0,72,0.00,,,0.00,WUHU21623XXSP,2013-05-02 09:21:00,
2013-05-02 05:26:00,59.9,50.9,30.17,SE,135,0.0,0.0,72,0.00,,,0.00,WUHU21623XXSP,2013-05-02 09:26:00,
2013-05-02 05:31:00,59.7,50.7,30.17,SE,135,0.0,0.0,72,0.00,,,0.00,WUHU21623XXSP,2013-05-02 09:31:00,
2013-05-02 05:36:00,59.5,50.5,30.16,SE,135,0.0,0.0,72,0.00,,,0.00,WUHU21623XXSP,2013-05-02 09:36:00,
2013-05-02 05:41:00,59.2,50.2,30.17,SE,135,0.0,0.0,72,0.00,,,0.00,WUHU21623XXSP,2013-05-02 09:41:00,
2013-05-02 05:46:00,59.0,50.0,30.17,SE,135,0.0,0.0,72,0.00,,,0.00,WUHU21623XXSP,2013-05-02 09:46:00,
2013-05-02 05:51:00,58.8,50.2,30.17,SE,135,0.0,0.0,73,0.00,,,0.00,WUHU21623XXSP,2013-05-02 09:51:00,
2013-05-02 05:56:00,58.8,50.2,30.17,SE,135,0.0,0.0,73,0.00,,,0.00,WUHU21623XXSP,2013-05-02 09:56:00,
2013-05-02 06:01:00,58.8,50.2,30.17,SE,135,0.0,0.0,73,0.00,,,0.00,WUHU21623XXSP,2013-05-02 10:01:00,
2013-05-02 06:06:00,58.8,50.2,30.17,SE,135,0.0,0.0,73,0.00,,,0.00,WUHU21623XXSP,2013-05-02 10:06:00,
2013-05-02 06:10:00,58.8,50.2,30.17,SE,135,0.0,0.0,73,0.00,,,0.00,WUHU21623XXSP,2013-05-02 10:10:00,
2013-05-02 06:15:00,58.5,50.9,30.17,SE,135,0.0,0.0,76,0.00,,,0.00,WUHU21623XXSP,2013-05-02 10:15:00,
2013-05-02 06:21:00,58.6,51.1,30.17,SE,135,0.0,0.0,76,0.00,,,0.00,WUHU21623XXSP,2013-05-02 10:21:00,
2013-05-02 06:25:00,58.6,51.1,30.17,SE,135,0.0,0.0,76,0.00,,,0.00,WUHU21623XXSP,2013-05-02 10:25:00,
2013-05-02 06:31:00,58.6,51.1,30.17,SE,135,0.0,0.0,76,0.00,,,0.00,WUHU21623XXSP,2013-05-02 10:31:00,
2013-05-02 06:35:00,58.6,51.4,30.17,ESE,112,0.0,0.0,77,0.00,,,0.00,WUHU21623XXSP,2013-05-02 10:35:00,
2013-05-02 06:41:00,58.8,51.6,30.17,ESE,112,0.0,0.0,77,0.00,,,0.00,WUHU21623XXSP,2013-05-02 10:41:00,
2013-05-02 06:45:00,58.8,51.6,30.17,ESE,112,0.0,0.0,77,0.00,,,0.00,WUHU21623XXSP,2013-05-02 10:45:00,
2013-05-02 06:50:00,59.4,52.2,30.17,ESE,112,0.0,0.0,77,0.00,,,0.00,WUHU21623XXSP,2013-05-02 10:50:00,
2013-05-02 06:55:00,59.5,52.0,30.17,ESE,112,0.0,0.0,76,0.00,,,0.00,WUHU21623XXSP,2013-05-02 10:55:00,
2013-05-02 07:00:00,59.7,52.2,30.18,ESE,112,0.0,0.0,76,0.00,,,0.00,WUHU21623XXSP,2013-05-02 11:00:00,
2013-05-02 07:05:00,60.1,52.5,30.18,ESE,112,0.0,0.0,76,0.00,,,0.00,WUHU21623XXSP,2013-05-02 11:05:00,
2013-05-02 07:10:00,60.4,52.9,30.18,ESE,112,0.0,0.0,76,0.00,,,0.00,WUHU21623XXSP,2013-05-02 11:10:00,
2013-05-02 07:15:00,60.4,52.9,30.18,ESE,112,0.0,0.0,76,0.00,,,0.00,WUHU21623XXSP,2013-05-02 11:15:00,
2013-05-02 07:20:00,60.6,52.7,30.18,ESE,112,0.0,0.0,75,0.00,,,0.00,WUHU21623XXSP,2013-05-02 11:20:00,
2013-05-02 07:25:00,60.8,52.9,30.18,ESE,112,0.0,0.0,75,0.00,,,0.00,WUHU21623XXSP,2013-05-02 11:25:00,
2013-05-02 07:30:00,60.8,52.9,30.18,South,180,0.0,0.0,75,0.00,,,0.00,WUHU21623XXSP,2013-05-02 11:30:00,
2013-05-02 07:35:00,61.0,53.0,30.18,South,180,0.0,0.0,75,0.00,,,0.00,WUHU21623XXSP,2013-05-02 11:35:00,
2013-05-02 07:40:00,61.2,53.2,30.18,South,180,0.0,0.0,75,0.00,,,0.00,WUHU21623XXSP,2013-05-02 11:40:00,
2013-05-02 07:45:00,61.3,53.4,30.18,South,180,0.0,0.0,75,0.00,,,0.00,WUHU21623XXSP,2013-05-02 11:45:00,
2013-05-02 07:50:00,61.3,53.0,30.19,South,180,0.4,0.4,74,0.00,,,0.00,WUHU21623XXSP,2013-05-02 11:50:00,
2013-05-02 07:55:00,61.5,53.2,30.19,South,180,0.0,0.4,74,0.00,,,0.00,WUHU21623XXSP,2013-05-02 11:55:00,
2013-05-02 08:00:00,61.7,53.3,30.19,SSE,157,2.7,2.7,74,0.00,,,0.00,WUHU21623XXSP,2013-05-02 12:00:00,
2013-05-02 08:05:00,62.1,53.7,30.19,SSE,157,0.0,2.7,74,0.00,,,0.00,WUHU21623XXSP,2013-05-02 12:05:00,
2013-05-02 08:10:00,62.2,53.8,30.19,SE,135,0.0,0.4,74,0.00,,,0.00,WUHU21623XXSP,2013-05-02 12:10:00,
2013-05-02 08:15:00,62.4,54.0,30.19,South,180,0.0,0.0,74,0.00,,,0.00,WUHU21623XXSP,2013-05-02 12:15:00,
2013-05-02 08:20:00,62.8,54.3,30.20,SSW,202,0.7,0.7,74,0.00,,,0.00,WUHU21623XXSP,2013-05-02 12:20:00,
2013-05-02 08:25:00,63.0,54.5,30.20,SSW,202,0.7,0.7,74,0.00,,,0.00,WUHU21623XXSP,2013-05-02 12:25:00,
2013-05-02 08:30:00,63.1,54.3,30.20,South,180,2.2,2.2,73,0.00,,,0.00,WUHU21623XXSP,2013-05-02 12:30:00,
2013-05-02 08:35:00,63.5,54.7,30.20,SSW,202,0.0,2.2,73,0.00,,,0.00,WUHU21623XXSP,2013-05-02 12:35:00,
2013-05-02 08:40:00,63.7,54.5,30.20,SE,135,0.0,2.2,72,0.00,,,0.00,WUHU21623XXSP,2013-05-02 12:40:00,
2013-05-02 08:45:00,64.0,54.9,30.20,SSE,157,0.0,0.0,72,0.00,,,0.00,WUHU21623XXSP,2013-05-02 12:45:00,
2013-05-02 08:50:00,64.2,54.7,30.20,South,180,0.9,0.9,71,0.00,,,0.00,WUHU21623XXSP,2013-05-02 12:50:00,
2013-05-02 08:55:00,64.6,55.0,30.20,SSE,157,4.3,4.3,71,0.00,,,0.00,WUHU21623XXSP,2013-05-02 12:55:00,
2013-05-02 09:00:00,64.9,55.3,30.21,SSE,157,1.8,4.3,71,0.00,,,0.00,WUHU21623XXSP,2013-05-02 13:00:00,
2013-05-02 09:05:00,65.1,55.1,30.20,SSE,157,0.9,4.3,70,0.00,,,0.00,WUHU21623XXSP,2013-05-02 13:05:00,
2013-05-02 09:10:00,65.5,55.8,30.21,SW,225,0.0,0.9,71,0.00,,,0.00,WUHU21623XXSP,2013-05-02 13:10:00,
2013-05-02 09:15:00,66.0,56.0,30.21,SE,135,0.0,0.0,70,0.00,,,0.00,WUHU21623XXSP,2013-05-02 13:15:00,
2013-05-02 09:20:00,66.6,56.5,30.21,SSE,157,0.4,1.1,70,0.00,,,0.00,WUHU21623XXSP,2013-05-02 13:20:00,
2013-05-02 09:25:00,67.3,56.8,30.21,South,180,0.0,1.1,69,0.00,,,0.00,WUHU21623XXSP,2013-05-02 13:25:00,
2013-05-02 09:30:00,67.5,56.5,30.21,South,185,2.1,5.1,68,0.00,,,0.00,WUHU21623XXSP,2013-05-02 13:30:00,
2013-05-02 09:35:00,68.2,56.4,30.21,South,180,0.0,5.1,66,0.00,,,0.00,WUHU21623XXSP,2013-05-02 13:35:00,
2013-05-02 09:40:00,68.5,56.7,30.21,West,270,1.6,2.7,66,0.00,,,0.00,WUHU21623XXSP,2013-05-02 13:40:00,
2013-05-02 09:45:00,68.7,56.4,30.22,SSE,157,0.0,1.6,65,0.00,,,0.00,WUHU21623XXSP,2013-05-02 13:45:00,
2013-05-02 09:50:00,69.4,57.1,30.21,South,176,4.4,5.1,65,0.00,,,0.00,WUHU21623XXSP,2013-05-02 13:50:00,
2013-05-02 09:55:00,69.6,57.3,30.21,South,180,0.0,5.1,65,0.00,,,0.00,WUHU21623XXSP,2013-05-02 13:55:00,
2013-05-02 10:00:00,70.0,57.2,30.21,SE,135,0.0,2.0,64,0.00,,,0.00,WUHU21623XXSP,2013-05-02 14:00:00,
2013-05-02 10:05:00,70.3,57.6,30.21,SSW,194,3.5,3.8,64,0.00,,,0.00,WUHU21623XXSP,2013-05-02 14:05:00,
2013-05-02 10:10:00,70.7,57.5,30.21,SSE,157,3.6,3.8,63,0.00,,,0.00,WUHU21623XXSP,2013-05-02 14:10:00,
2013-05-02 10:15:00,71.1,56.9,30.21,SSE,157,0.5,3.6,61,0.00,,,0.00,WUHU21623XXSP,2013-05-02 14:15:00,
2013-05-02 10:20:00,71.2,57.5,30.21,South,180,7.8,7.8,62,0.00,,,0.00,WUHU21623XXSP,2013-05-02 14:20:00,
2013-05-02 10:25:00,71.4,57.3,30.21,South,171,2.0,7.8,61,0.00,,,0.00,WUHU21623XXSP,2013-05-02 14:25:00,
2013-05-02 10:30:00,71.8,57.6,30.21,SW,225,3.8,7.8,61,0.00,,,0.00,WUHU21623XXSP,2013-05-02 14:30:00,
2013-05-02 10:35:00,71.8,57.6,30.21,SW,225,3.8,4.0,61,0.00,,,0.00,WUHU21623XXSP,2013-05-02 14:35:00,
2013-05-02 10:40:00,72.1,57.5,30.21,SSW,202,1.6,3.8,60,0.00,,,0.00,WUHU21623XXSP,2013-05-02 14:40:00,
2013-05-02 10:45:00,72.3,57.7,30.21,South,180,6.7,6.7,60,0.00,,,0.00,WUHU21623XXSP,2013-05-02 14:45:00,
2013-05-02 10:50:00,72.3,57.7,30.21,SSE,157,0.0,6.7,60,0.00,,,0.00,WUHU21623XXSP,2013-05-02 14:50:00,
2013-05-02 10:55:00,72.5,57.8,30.21,SSE,157,1.8,6.7,60,0.00,,,0.00,WUHU21623XXSP,2013-05-02 14:55:00,
2013-05-02 11:00:00,72.5,57.5,30.21,SSE,157,5.1,5.1,59,0.00,,,0.00,WUHU21623XXSP,2013-05-02 15:00:00,
2013-05-02 11:05:00,72.7,57.7,30.21,SSE,157,0.0,5.1,59,0.00,,,0.00,WUHU21623XXSP,2013-05-02 15:05:00,
2013-05-02 11:10:00,72.6,57.6,30.21,WSW,247,1.3,5.1,59,0.00,,,0.00,WUHU21623XXSP,2013-05-02 15:10:00,
2013-05-02 11:15:00,72.2,57.3,30.21,SSE,157,0.0,1.3,59,0.00,,,0.00,WUHU21623XXSP,2013-05-02 15:15:00,
2013-05-02 11:20:00,72.2,57.2,30.21,SSE,157,2.7,2.7,59,0.00,,,0.00,WUHU21623XXSP,2013-05-02 15:20:00,
2013-05-02 11:25:00,72.2,57.3,30.20,SSE,168,2.1,2.7,59,0.00,,,0.00,WUHU21623XXSP,2013-05-02 15:25:00,
2013-05-02 11:30:00,72.1,57.1,30.20,South,180,4.0,4.0,59,0.00,,,0.00,WUHU21623XXSP,2013-05-02 15:30:00,
2013-05-02 11:35:00,72.0,56.1,30.19,SSE,157,0.7,4.0,57,0.00,,,0.00,WUHU21623XXSP,2013-05-02 15:35:00,
2013-05-02 11:40:00,71.7,56.3,30.19,SSE,157,3.8,4.0,58,0.00,,,0.00,WUHU21623XXSP,2013-05-02 15:40:00,
2013-05-02 11:45:00,71.4,55.5,30.19,SSE,157,2.5,3.8,57,0.00,,,0.00,WUHU21623XXSP,2013-05-02 15:45:00,
2013-05-02 11:50:00,71.1,55.3,30.19,SW,225,5.4,5.4,57,0.00,,,0.00,WUHU21623XXSP,2013-05-02 15:50:00,
2013-05-02 11:55:00,70.8,55.0,30.19,SE,135,0.0,5.4,57,0.00,,,0.00,WUHU21623XXSP,2013-05-02 15:55:00,
2013-05-02 12:00:00,71.0,55.1,30.19,South,180,0.0,5.4,57,0.00,,,0.00,WUHU21623XXSP,2013-05-02 16:00:00,
2013-05-02 12:05:00,70.7,54.9,30.19,SE,131,3.2,3.4,57,0.00,,,0.00,WUHU21623XXSP,2013-05-02 16:05:00,
2013-05-02 12:10:00,70.5,54.1,30.19,WSW,247,2.9,3.4,56,0.00,,,0.00,WUHU21623XXSP,2013-05-02 16:10:00,
2013-05-02 12:15:00,70.0,54.2,30.19,South,180,1.3,2.9,57,0.00,,,0.00,WUHU21623XXSP,2013-05-02 16:15:00,
2013-05-02 12:20:00,70.0,53.7,30.19,SSW,202,0.0,1.3,56,0.00,,,0.00,WUHU21623XXSP,2013-05-02 16:20:00,
2013-05-02 12:25:00,70.0,53.8,30.19,SSE,157,1.8,1.8,56,0.00,,,0.00,WUHU21623XXSP,2013-05-02 16:25:00,
2013-05-02 12:30:00,69.8,53.1,30.19,South,180,0.7,1.8,55,0.00,,,0.00,WUHU21623XXSP,2013-05-02 16:30:00,
2013-05-02 12:35:00,70.2,53.4,30.19,SSE,157,2.0,3.6,55,0.00,,,0.00,WUHU21623XXSP,2013-05-02 16:35:00,
2013-05-02 12:40:00,70.2,53.4,30.19,ESE,112,2.5,3.6,55,0.00,,,0.00,WUHU21623XXSP,2013-05-02 16:40:00,
2013-05-02 12:45:00,70.1,53.3,30.18,SE,135,1.1,2.5,55,0.00,,,0.00,WUHU21623XXSP,2013-05-02 16:45:00,
2013-05-02 12:50:00,69.9,53.2,30.18,South,180,2.9,3.4,55,0.00,,,0.00,WUHU21623XXSP,2013-05-02 16:50:00,
2013-05-02 12:55:00,69.8,52.5,30.18,South,180,4.0,4.0,54,0.00,,,0.00,WUHU21623XXSP,2013-05-02 16:55:00,
2013-05-02 13:00:00,69.8,52.5,30.18,SW,225,3.4,4.0,54,0.00,,,0.00,WUHU21623XXSP,2013-05-02 17:00:00,
2013-05-02 13:05:00,69.7,52.4,30.18,SSE,157,1.1,3.4,54,0.00,,,0.00,WUHU21623XXSP,2013-05-02 17:05:00,
2013-05-02 13:10:00,69.9,52.7,30.17,SSE,157,1.1,3.4,54,0.00,,,0.00,WUHU21623XXSP,2013-05-02 17:10:00,
2013-05-02 13:15:00,69.8,53.1,30.17,West,270,0.0,1.1,55,0.00,,,0.00,WUHU21623XXSP,2013-05-02 17:15:00,
2013-05-02 13:20:00,70.2,52.4,30.17,South,180,0.7,7.4,53,0.00,,,0.00,WUHU21623XXSP,2013-05-02 17:20:00,
2013-05-02 13:25:00,70.1,52.3,30.17,SSW,202,5.6,7.4,53,0.00,,,0.00,WUHU21623XXSP,2013-05-02 17:25:00,
2013-05-02 13:30:00,70.0,52.2,30.17,SSW,202,5.6,5.6,53,0.00,,,0.00,WUHU21623XXSP,2013-05-02 17:30:00,
2013-05-02 13:35:00,70.2,51.8,30.17,SE,135,1.6,5.6,52,0.00,,,0.00,WUHU21623XXSP,2013-05-02 17:35:00,
2013-05-02 13:40:00,70.1,51.2,30.17,SE,131,1.2,5.6,51,0.00,,,0.00,WUHU21623XXSP,2013-05-02 17:40:00,
2013-05-02 13:45:00,69.9,51.0,30.17,SSE,157,0.0,3.4,51,0.00,,,0.00,WUHU21623XXSP,2013-05-02 17:45:00,
2013-05-02 13:50:00,69.8,51.5,30.17,SE,135,0.0,4.9,52,0.00,,,0.00,WUHU21623XXSP,2013-05-02 17:50:00,
2013-05-02 13:55:00,69.8,51.5,30.17,South,180,4.0,4.9,52,0.00,,,0.00,WUHU21623XXSP,2013-05-02 17:55:00,
2013-05-02 14:00:00,70.0,51.7,30.16,ESE,112,0.9,4.0,52,0.00,,,0.00,WUHU21623XXSP,2013-05-02 18:00:00,
2013-05-02 14:05:00,70.2,51.8,30.17,SE,135,0.4,4.0,52,0.00,,,0.00,WUHU21623XXSP,2013-05-02 18:05:00,
2013-05-02 14:10:00,70.4,51.5,30.17,WSW,247,8.3,8.3,51,0.00,,,0.00,WUHU21623XXSP,2013-05-02 18:10:00,
2013-05-02 14:15:00,70.6,51.6,30.16,SE,135,1.6,8.3,51,0.00,,,0.00,WUHU21623XXSP,2013-05-02 18:15:00,
2013-05-02 14:20:00,70.5,51.6,30.16,ESE,112,6.0,6.0,51,0.00,,,0.00,WUHU21623XXSP,2013-05-02 18:20:00,
2013-05-02 14:25:00,70.6,51.6,30.16,ESE,106,3.0,6.0,51,0.00,,,0.00,WUHU21623XXSP,2013-05-02 18:25:00,
2013-05-02 14:30:00,70.7,51.8,30.16,East,90,1.6,6.0,51,0.00,,,0.00,WUHU21623XXSP,2013-05-02 18:30:00,
2013-05-02 14:35:00,70.8,51.9,30.16,SE,135,1.6,1.6,51,0.00,,,0.00,WUHU21623XXSP,2013-05-02 18:35:00,
2013-05-02 14:40:00,71.1,52.2,30.16,SSE,157,6.3,6.3,51,0.00,,,0.00,WUHU21623XXSP,2013-05-02 18:40:00,
2013-05-02 14:45:00,71.2,52.3,30.16,ESE,112,0.0,6.3,51,0.00,,,0.00,WUHU21623XXSP,2013-05-02 18:45:00,
2013-05-02 14:50:00,71.6,53.1,30.15,ENE,67,2.2,6.3,52,0.00,,,0.00,WUHU21623XXSP,2013-05-02 18:50:00,
2013-05-02 14:55:00,71.9,52.9,30.15,ESE,112,7.2,7.2,51,0.00,,,0.00,WUHU21623XXSP,2013-05-02 18:55:00,
2013-05-02 15:00:00,72.1,52.5,30.15,ESE,112,1.8,7.2,50,0.00,,,0.00,WUHU21623XXSP,2013-05-02 19:00:00,
2013-05-02 15:05:00,72.0,52.4,30.15,ESE,112,1.1,7.2,50,0.00,,,0.00,WUHU21623XXSP,2013-05-02 19:05:00,
2013-05-02 15:10:00,72.2,52.6,30.15,ENE,67,1.6,1.8,50,0.00,,,0.00,WUHU21623XXSP,2013-05-02 19:10:00,
2013-05-02 15:15:00,72.4,53.3,30.15,SE,135,0.0,1.6,51,0.00,,,0.00,WUHU21623XXSP,2013-05-02 19:15:00,
2013-05-02 15:20:00,72.6,53.5,30.15,South,180,3.4,3.6,51,0.00,,,0.00,WUHU21623XXSP,2013-05-02 19:20:00,
2013-05-02 15:25:00,72.8,53.1,30.15,ESE,112,0.0,3.6,50,0.00,,,0.00,WUHU21623XXSP,2013-05-02 19:25:00,
2013-05-02 15:30:00,73.0,53.3,30.14,South,180,6.5,6.5,50,0.00,,,0.00,WUHU21623XXSP,2013-05-02 19:30:00,
2013-05-02 15:35:00,73.0,53.3,30.14,SE,130,1.7,6.5,50,0.00,,,0.00,WUHU21623XXSP,2013-05-02 19:35:00,
2013-05-02 15:40:00,73.2,53.5,30.14,SW,225,0.0,2.0,50,0.00,,,0.00,WUHU21623XXSP,2013-05-02 19:40:00,
2013-05-02 15:45:00,73.5,53.8,30.14,SE,135,3.6,3.6,50,0.00,,,0.00,WUHU21623XXSP,2013-05-02 19:45:00,
2013-05-02 15:50:00,73.5,53.8,30.13,ESE,112,3.8,3.8,50,0.00,,,0.00,WUHU21623XXSP,2013-05-02 19:50:00,
2013-05-02 15:55:00,73.8,54.6,30.13,ESE,112,2.0,3.8,51,0.00,,,0.00,WUHU21623XXSP,2013-05-02 19:55:00,
2013-05-02 16:00:00,74.0,54.8,30.13,ESE,112,2.0,3.8,51,0.00,,,0.00,WUHU21623XXSP,2013-05-02 20:00:00,
2013-05-02 16:05:00,74.3,55.1,30.13,East,90,5.6,5.6,51,0.00,,,0.00,WUHU21623XXSP,2013-05-02 20:05:00,
2013-05-02 16:10:00,74.5,54.7,30.13,East,95,2.8,5.6,50,0.00,,,0.00,WUHU21623XXSP,2013-05-02 20:10:00,
2013-05-02 16:15:00,74.5,54.8,30.12,East,90,6.5,8.9,50,0.00,,,0.00,WUHU21623XXSP,2013-05-02 20:15:00,
2013-05-02 16:20:00,74.4,54.7,30.13,ESE,112,2.0,8.9,50,0.00,,,0.00,WUHU21623XXSP,2013-05-02 20:20:00,
2013-05-02 16:25:00,74.7,54.9,30.12,SE,129,1.0,6.5,50,0.00,,,0.00,WUHU21623XXSP,2013-05-02 20:25:00,
2013-05-02 16:30:00,75.0,55.2,30.12,SE,135,4.9,4.9,50,0.00,,,0.00,WUHU21623XXSP,2013-05-02 20:30:00,
2013-05-02 16:35:00,75.1,55.8,30.12,ESE,112,6.0,6.0,51,0.00,,,0.00,WUHU21623XXSP,2013-05-02 20:35:00,
2013-05-02 16:40:00,75.1,55.8,30.12,ENE,67,2.7,6.0,51,0.00,,,0.00,WUHU21623XXSP,2013-05-02 20:40:00,
2013-05-02 16:45:00,75.0,55.7,30.12,ENE,67,2.7,6.0,51,0.00,,,0.00,WUHU21623XXSP,2013-05-02 20:45:00,
2013-05-02 16:50:00,75.1,55.8,30.12,SSE,157,0.0,2.7,51,0.00,,,0.00,WUHU21623XXSP,2013-05-02 20:50:00,
2013-05-02 16:55:00,75.4,56.1,30.12,ESE,105,3.9,4.3,51,0.00,,,0.00,WUHU21623XXSP,2013-05-02 20:55:00,
2013-05-02 17:00:00,75.4,56.1,30.12,East,92,2.1,4.3,51,0.00,,,0.00,WUHU21623XXSP,2013-05-02 21:00:00,
2013-05-02 17:05:00,75.4,56.1,30.12,WSW,247,7.2,7.2,51,0.00,,,0.00,WUHU21623XXSP,2013-05-02 21:05:00,
2013-05-02 17:10:00,75.4,55.6,30.12,East,90,3.1,7.2,50,0.00,,,0.00,WUHU21623XXSP,2013-05-02 21:10:00,
2013-05-02 17:15:00,75.4,56.1,30.11,ESE,112,7.2,7.2,51,0.00,,,0.00,WUHU21623XXSP,2013-05-02 21:15:00,
2013-05-02 17:20:00,75.4,55.6,30.11,SE,135,7.2,7.2,50,0.00,,,0.00,WUHU21623XXSP,2013-05-02 21:20:00,
2013-05-02 17:25:00,75.4,55.6,30.12,SE,135,7.2,7.2,50,0.00,,,0.00,WUHU21623XXSP,2013-05-02 21:25:00,
2013-05-02 17:30:00,75.4,55.6,30.11,SW,225,1.8,7.2,50,0.00,,,0.00,WUHU21623XXSP,2013-05-02 21:30:00,
2013-05-02 17:35:00,75.4,55.6,30.12,SE,135,0.0,7.2,50,0.00,,,0.00,WUHU21623XXSP,2013-05-02 21:35:00,
2013-05-02 17:40:00,75.4,55.6,30.12,ESE,112,6.9,6.9,50,0.00,,,0.00,WUHU21623XXSP,2013-05-02 21:40:00,
2013-05-02 17:45:00,75.4,55.6,30.11,SE,135,2.9,6.9,50,0.00,,,0.00,WUHU21623XXSP,2013-05-02 21:45:00,
2013-05-02 17:50:00,75.2,55.4,30.11,East,90,5.4,6.9,50,0.00,,,0.00,WUHU21623XXSP,2013-05-02 21:50:00,
2013-05-02 17:55:00,75.0,55.2,30.11,ESE,112,1.8,5.4,50,0.00,,,0.00,WUHU21623XXSP,2013-05-02 21:55:00,
2013-05-02 18:00:00,74.8,55.0,30.11,ENE,67,1.8,5.4,50,0.00,,,0.00,WUHU21623XXSP,2013-05-02 22:00:00,
2013-05-02 18:05:00,74.8,55.0,30.11,ESE,112,1.3,4.3,50,0.00,,,0.00,WUHU21623XXSP,2013-05-02 22:05:00,
2013-05-02 18:10:00,74.8,55.0,30.11,East,98,2.1,4.3,50,0.00,,,0.00,WUHU21623XXSP,2013-05-02 22:10:00,
2013-05-02 18:15:00,74.8,55.0,30.11,ESE,112,2.9,3.6,50,0.00,,,0.00,WUHU21623XXSP,2013-05-02 22:15:00,
2013-05-02 18:20:00,74.5,54.7,30.11,ENE,67,1.8,2.9,50,0.00,,,0.00,WUHU21623XXSP,2013-05-02 22:20:00,
2013-05-02 18:25:00,74.3,54.5,30.11,ESE,110,2.8,6.7,50,0.00,,,0.00,WUHU21623XXSP,2013-05-02 22:25:00,
2013-05-02 18:30:00,74.3,54.5,30.11,East,90,0.9,6.7,50,0.00,,,0.00,WUHU21623XXSP,2013-05-02 22:30:00,
2013-05-02 18:35:00,73.9,54.1,30.10,ENE,67,2.9,2.9,50,0.00,,,0.00,WUHU21623XXSP,2013-05-02 22:35:00,
2013-05-02 18:40:00,73.9,54.6,30.10,ESE,112,6.9,6.9,51,0.00,,,0.00,WUHU21623XXSP,2013-05-02 22:40:00,
2013-05-02 18:45:00,73.8,54.5,30.10,South,180,0.9,6.9,51,0.00,,,0.00,WUHU21623XXSP,2013-05-02 22:45:00,
2013-05-02 18:50:00,73.6,54.3,30.10,ESE,112,4.7,4.7,51,0.00,,,0.00,WUHU21623XXSP,2013-05-02 22:50:00,
2013-05-02 18:55:00,73.6,54.3,30.10,East,90,3.4,4.7,51,0.00,,,0.00,WUHU21623XXSP,2013-05-02 22:55:00,
2013-05-02 19:00:00,73.4,54.1,30.10,South,180,0.0,4.7,51,0.00,,,0.00,WUHU21623XXSP,2013-05-02 23:00:00,
2013-05-02 19:05:00,73.2,53.9,30.10,ESE,112,1.8,3.4,51,0.00,,,0.00,WUHU21623XXSP,2013-05-02 23:05:00,
2013-05-02 19:10:00,73.0,53.8,30.10,ESE,112,1.3,1.8,51,0.00,,,0.00,WUHU21623XXSP,2013-05-02 23:10:00,
2013-05-02 19:15:00,73.0,54.3,30.10,ENE,67,3.1,3.1,52,0.00,,,0.00,WUHU21623XXSP,2013-05-02 23:15:00,
2013-05-02 19:20:00,72.9,54.1,30.10,ESE,112,0.0,3.1,52,0.00,,,0.00,WUHU21623XXSP,2013-05-02 23:20:00,
2013-05-02 19:25:00,72.5,53.8,30.10,SSE,157,1.3,1.3,52,0.00,,,0.00,WUHU21623XXSP,2013-05-02 23:25:00,
2013-05-02 19:30:00,72.3,54.1,30.10,ESE,112,2.5,2.5,53,0.00,,,0.00,WUHU21623XXSP,2013-05-02 23:30:00,
2013-05-02 19:35:00,72.3,54.1,30.10,ESE,112,2.7,2.7,53,0.00,,,0.00,WUHU21623XXSP,2013-05-02 23:35:00,
2013-05-02 19:40:00,72.1,54.0,30.10,East,100,2.5,3.8,53,0.00,,,0.00,WUHU21623XXSP,2013-05-02 23:40:00,
2013-05-02 19:45:00,72.1,54.0,30.10,SE,135,0.0,3.8,53,0.00,,,0.00,WUHU21623XXSP,2013-05-02 23:45:00,
2013-05-02 19:50:00,72.0,53.8,30.10,ESE,112,0.0,2.0,53,0.00,,,0.00,WUHU21623XXSP,2013-05-02 23:50:00,
2013-05-02 19:55:00,71.8,54.2,30.10,ESE,112,0.0,0.0,54,0.00,,,0.00,WUHU21623XXSP,2013-05-02 23:55:00,
2013-05-02 20:00:00,71.8,54.2,30.10,ESE,112,1.6,1.6,54,0.00,,,0.00,WUHU21623XXSP,2013-05-03 00:00:00,
2013-05-02 20:05:00,71.8,54.2,30.10,ESE,112,0.0,1.6,54,0.00,,,0.00,WUHU21623XXSP,2013-05-03 00:05:00,
2013-05-02 20:10:00,71.4,53.8,30.10,SE,135,0.0,1.6,54,0.00,,,0.00,WUHU21623XXSP,2013-05-03 00:10:00,
2013-05-02 20:15:00,71.4,53.8,30.10,ESE,112,0.0,0.0,54,0.00,,,0.00,WUHU21623XXSP,2013-05-03 00:15:00,
2013-05-02 20:20:00,71.2,53.7,30.10,ESE,112,0.7,0.7,54,0.00,,,0.00,WUHU21623XXSP,2013-05-03 00:20:00,
2013-05-02 20:25:00,70.9,53.3,30.10,ESE,112,0.0,0.7,54,0.00,,,0.00,WUHU21623XXSP,2013-05-03 00:25:00,
2013-05-02 20:30:00,70.7,53.2,30.10,ESE,112,0.0,0.7,54,0.00,,,0.00,WUHU21623XXSP,2013-05-03 00:30:00,
2013-05-02 20:35:00,70.5,53.5,30.10,ESE,112,0.0,0.0,55,0.00,,,0.00,WUHU21623XXSP,2013-05-03 00:35:00,
2013-05-02 20:40:00,70.3,53.4,30.10,ESE,112,0.0,0.0,55,0.00,,,0.00,WUHU21623XXSP,2013-05-03 00:40:00,
2013-05-02 20:45:00,70.2,53.2,30.10,ESE,112,0.0,0.0,55,0.00,,,0.00,WUHU21623XXSP,2013-05-03 00:45:00,
2013-05-02 20:50:00,69.8,53.4,30.09,ESE,112,0.0,0.0,56,0.00,,,0.00,WUHU21623XXSP,2013-05-03 00:50:00,
2013-05-02 20:55:00,69.6,53.2,30.10,ESE,112,0.0,0.0,56,0.00,,,0.00,WUHU21623XXSP,2013-05-03 00:55:00,
2013-05-02 21:00:00,69.4,53.0,30.10,ESE,112,0.0,0.0,56,0.00,,,0.00,WUHU21623XXSP,2013-05-03 01:00:00,
2013-05-02 21:05:00,69.1,52.7,30.10,ESE,112,0.0,0.0,56,0.00,,,0.00,WUHU21623XXSP,2013-05-03 01:05:00,
2013-05-02 21:10:00,68.9,52.5,30.10,ESE,112,0.0,0.0,56,0.00,,,0.00,WUHU21623XXSP,2013-05-03 01:10:00,
2013-05-02 21:15:00,68.7,52.8,30.10,ESE,112,0.0,0.0,57,0.00,,,0.00,WUHU21623XXSP,2013-05-03 01:15:00,
2013-05-02 21:20:00,68.4,52.5,30.10,ESE,112,0.0,0.0,57,0.00,,,0.00,WUHU21623XXSP,2013-05-03 01:20:00,
2013-05-02 21:25:00,68.2,52.3,30.10,ESE,112,0.0,0.0,57,0.00,,,0.00,WUHU21623XXSP,2013-05-03 01:25:00,
2013-05-02 21:30:00,68.0,52.6,30.10,ESE,112,0.0,0.0,58,0.00,,,0.00,WUHU21623XXSP,2013-05-03 01:30:00,
2013-05-02 21:35:00,67.8,52.5,30.10,ESE,112,0.0,0.0,58,0.00,,,0.00,WUHU21623XXSP,2013-05-03 01:35:00,
2013-05-02 21:40:00,67.6,52.8,30.10,ESE,112,0.0,0.0,59,0.00,,,0.00,WUHU21623XXSP,2013-05-03 01:40:00,
2013-05-02 21:45:00,67.6,52.8,30.10,ESE,112,0.0,0.0,59,0.00,,,0.00,WUHU21623XXSP,2013-05-03 01:45:00,
2013-05-02 21:50:00,67.3,52.5,30.11,ESE,112,0.0,0.0,59,0.00,,,0.00,WUHU21623XXSP,2013-05-03 01:50:00,
2013-05-02 21:55:00,67.3,52.5,30.10,ESE,112,0.0,0.0,59,0.00,,,0.00,WUHU21623XXSP,2013-05-03 01:55:00,
2013-05-02 22:00:00,67.1,52.8,30.10,ESE,112,0.0,0.0,60,0.00,,,0.00,WUHU21623XXSP,2013-05-03 02:00:00,
2013-05-02 22:05:00,67.1,52.8,30.10,ESE,112,0.0,0.0,60,0.00,,,0.00,WUHU21623XXSP,2013-05-03 02:05:00,
2013-05-02 22:10:00,66.9,52.6,30.11,ESE,112,0.0,0.0,60,0.00,,,0.00,WUHU21623XXSP,2013-05-03 02:10:00,
2013-05-02 22:15:00,66.7,52.5,30.11,ESE,112,0.0,0.0,60,0.00,,,0.00,WUHU21623XXSP,2013-05-03 02:15:00,
2013-05-02 22:20:00,66.7,52.5,30.11,ESE,112,0.0,0.0,60,0.00,,,0.00,WUHU21623XXSP,2013-05-03 02:20:00,
2013-05-02 22:25:00,66.7,52.9,30.11,ESE,112,0.0,0.0,61,0.00,,,0.00,WUHU21623XXSP,2013-05-03 02:25:00,
2013-05-02 22:30:00,66.6,52.7,30.11,ESE,112,0.0,0.0,61,0.00,,,0.00,WUHU21623XXSP,2013-05-03 02:30:00,
2013-05-02 22:35:00,66.4,52.6,30.11,ESE,112,0.0,0.0,61,0.00,,,0.00,WUHU21623XXSP,2013-05-03 02:35:00,
2013-05-02 22:40:00,66.4,52.6,30.11,ESE,112,0.0,0.0,61,0.00,,,0.00,WUHU21623XXSP,2013-05-03 02:40:00,
2013-05-02 22:45:00,66.0,52.2,30.11,ESE,112,0.0,0.0,61,0.00,,,0.00,WUHU21623XXSP,2013-05-03 02:45:00,
2013-05-02 22:50:00,66.0,52.2,30.10,ESE,112,0.0,0.0,61,0.00,,,0.00,WUHU21623XXSP,2013-05-03 02:50:00,
2013-05-02 22:55:00,66.0,52.6,30.10,ESE,112,0.0,0.0,62,0.00,,,0.00,WUHU21623XXSP,2013-05-03 02:55:00,
2013-05-02 23:00:00,66.0,52.6,30.10,ESE,112,0.0,0.0,62,0.00,,,0.00,WUHU21623XXSP,2013-05-03 03:00:00,
2013-05-02 23:05:00,65.8,52.4,30.10,ESE,112,0.0,0.0,62,0.00,,,0.00,WUHU21623XXSP,2013-05-03 03:05:00,
2013-05-02 23:10:00,65.7,52.3,30.10,ESE,112,0.0,0.0,62,0.00,,,0.00,WUHU21623XXSP,2013-05-03 03:10:00,
2013-05-02 23:15:00,65.5,52.3,30.10,ESE,112,0.0,0.0,62,0.00,,,0.00,WUHU21623XXSP,2013-05-03 03:15:00,
2013-05-02 23:20:00,65.3,52.3,30.10,ESE,112,0.0,0.0,63,0.00,,,0.00,WUHU21623XXSP,2013-05-03 03:20:00,
2013-05-02 23:25:00,65.1,52.2,30.10,ESE,112,0.0,0.0,63,0.00,,,0.00,WUHU21623XXSP,2013-05-03 03:25:00,
2013-05-02 23:30:00,65.1,52.2,30.10,ESE,112,0.0,0.0,63,0.00,,,0.00,WUHU21623XXSP,2013-05-03 03:30:00,
2013-05-02 23:35:00,65.1,52.2,30.10,ESE,112,0.0,0.0,63,0.00,,,0.00,WUHU21623XXSP,2013-05-03 03:35:00,
2013-05-02 23:40:00,64.9,52.4,30.10,ESE,112,0.0,0.0,64,0.00,,,0.00,WUHU21623XXSP,2013-05-03 03:40:00,
2013-05-02 23:45:00,64.8,52.3,30.10,ESE,112,0.0,0.0,64,0.00,,,0.00,WUHU21623XXSP,2013-05-03 03:45:00,
2013-05-02 23:50:00,64.6,52.1,30.10,ESE,112,0.0,0.0,64,0.00,,,0.00,WUHU21623XXSP,2013-05-03 03:50:00,
2013-05-02 23:55:00,64.6,52.5,30.10,ESE,112,0.0,0.0,65,0.00,,,0.00,WUHU21623XXSP,2013-05-03 03:55:00,